[[{"header":{"parameterUnit":"m.s-1","parameterCategory":1,"la1":30.2991,"la2":30.254,"lo1":-89.0895,"lo2":-89.0444,"dy":0.0017,"dx":0.0017,"nx":28,"ny":28,"refTime":"2026-03-03T09:00:00:Z","depth":0,"parameterNumber":2,"parameterNumberName":"U-component_of_WINDS"},"data":[0,0,0,0,0,0,0,0,0,0,0,0,0,0,0,0,0,0,0,0,0,0,0,0,0,0,0,0,0,0,0,0,0,0,0,0,0,0,0,0,0,0,0,0,0,0,0,0,0,0,0,0,0,0,0,0,0,0,-3.8432,-3.8433,0,-3.8539,-3.854,-3.8541,-3.8535,-3.8534,-3.8532,-3.8531,-3.8644,-3.8648,-3.8652,0,0,0,0,0,0,0,0,0,0,0,0,0,-3.8227,-3.8231,-3.8432,-3.8433,-3.8434,-3.8538,-3.854,-3.8541,-3.8536,-3.8534,-3.8532,-3.853,-3.8642,-3.8647,-3.8653,0,0,0,0,0,0,0,0,0,0,0,0,0,-3.8323,-3.8232,-3.8431,-3.8444,-3.8446,-3.8538,-3.854,-3.8542,-3.8536,-3.8534,-3.8531,-3.8529,-3.864,-3.8647,-3.8653,-3.8741,0,0,-3.8674,-3.8677,0,0,0,0,0,0,0,0,-3.8318,-3.8331,-3.8441,-3.8443,-3.8446,-3.8521,-3.8509,-3.8609,-3.8537,-3.8502,-3.8531,-3.8528,-3.8605,-3.8614,-3.864,-3.8746,-3.8751,-3.8674,-3.8678,-3.8681,-3.8683,0,0,0,0,0,0,0,-3.8311,-3.8326,-3.8474,-3.8442,-3.8446,-3.8446,-3.8457,-3.8528,-3.8565,-3.8505,-3.8505,-3.8517,-3.8606,-3.8633,-3.8642,-3.8753,-3.8674,-3.868,-3.8684,-3.8687,-3.8938,-3.8941,0,0,0,0,0,0,-3.8301,-3.8321,-3.8471,-3.8477,-3.8375,-3.8451,-3.8464,-3.8499,-3.8564,-3.8572,-3.8519,-3.8517,-3.8623,-3.8634,-3.8646,-3.8753,-3.8681,-3.8687,-3.8691,-3.8936,-3.8939,-3.8942,0,0,0,0,0,0,-3.8297,-3.8315,-3.8466,-3.8399,-3.8418,-3.8457,-3.8497,-3.8503,-3.853,-3.8575,-3.8582,-3.854,-3.8622,-3.8637,-3.8717,-3.8757,-3.869,-3.8697,-3.8932,-3.8937,-3.894,-3.8967,0,0,0,0,0,0,-3.8291,-3.8313,-3.8345,-3.84,-3.8422,-3.8534,-3.85,-3.8506,-3.8541,-3.8539,-3.8596,-3.8604,-3.8621,-3.8708,-3.8724,-3.8765,-3.8702,-3.8929,-3.8934,-3.8939,-3.8963,-3.8972,-3.8979,0,0,0,0,0,-3.8284,-3.8349,-3.8347,-3.8365,-3.8463,-3.8536,-3.8549,-3.8567,-3.8544,-3.8578,-3.8607,-3.8602,-3.875,-3.8716,-3.8734,-3.8778,-3.8927,-3.8933,-3.8939,-3.8959,-3.897,-3.8979,0,0,0,0,0,0,-3.8299,-3.8357,-3.8355,-3.8439,-3.8483,-3.8535,-3.8578,-3.8577,-3.8629,-3.8625,-3.8646,-3.8659,-3.874,-3.8767,-3.8728,-3.8867,-3.8836,-3.8846,-3.8845,-3.8856,-3.8864,-3.8855,-3.8707,0,0,0,0,0,-3.8312,-3.8366,-3.8414,-3.8484,-3.8506,-3.8539,-3.8571,-3.8581,-3.8628,-3.8646,-3.8681,-3.8728,-3.8785,-3.8822,-3.8877,-3.8968,-3.8981,-3.9007,-3.9015,-3.9022,-3.903,-3.908,-3.9093,-3.8961,-3.8961,-3.8961,0,0,-3.834,-3.8378,-3.8411,-3.8488,-3.8523,-3.858,-3.8554,-3.8615,-3.8657,-3.8656,-3.8733,-3.8762,-3.8815,-3.8901,-3.8941,-3.8926,-3.9069,-3.9029,-3.9034,-3.9039,-3.9088,-3.91,-3.9111,-3.8966,-3.8965,-3.8964,0,0,-3.8419,-3.8453,-3.8516,-3.8552,-3.8605,-3.8626,-3.8641,-3.8694,-3.8713,-3.8791,-3.8792,-3.8844,-3.8942,-3.898,-3.9012,-3.9109,-3.9106,-3.9126,-3.9168,-3.9217,-3.9227,-3.9237,-3.9271,-3.9283,-3.9135,-3.9135,-3.9135,0,-3.8447,-3.8531,-3.8548,-3.8609,-3.8644,-3.8645,-3.8709,-3.8744,-3.8813,-3.8837,-3.8821,-3.8944,-3.898,-3.9076,-3.9099,-3.9126,-3.9144,-3.9119,-3.9224,-3.9234,-3.9243,-3.9276,-3.9289,-3.9137,-3.9137,-3.9136,-3.9136,0,-3.8563,-3.8621,-3.8665,-3.8731,-3.8771,-3.8833,-3.8861,-3.89,-3.8908,-3.8932,-3.9013,-3.9057,-3.9121,-3.9145,-3.9153,-3.9242,-3.9231,-3.922,-3.9188,-3.9257,-3.9288,-3.9301,-3.914,-3.9139,-3.9138,-3.9138,0,0,-3.8652,-3.8727,-3.8743,-3.8773,-3.8833,-3.888,-3.8943,-3.9005,-3.9038,-3.9087,-3.9141,-3.9226,-3.9215,-3.9252,-3.9265,-3.9308,-3.9382,-3.9291,-3.9293,-3.9306,-3.9484,-3.9491,-3.9505,-3.9382,-3.9384,-3.9386,-3.9479,0,-3.8736,-3.8847,-3.8865,-3.8963,-3.9018,-3.9022,-3.9077,-3.9121,-3.9146,-3.9197,-3.9226,-3.9285,-3.9267,-3.9289,-3.9332,-3.9364,-3.9418,-3.9358,-3.9433,-3.9436,-3.9418,-3.9522,-3.953,-3.9615,-3.9492,-3.9494,-3.9495,0,-3.8849,-3.8899,-3.9002,-3.9055,-3.9079,-3.9128,-3.9188,-3.9237,-3.9288,-3.9303,-3.9345,-3.9353,-3.9421,-3.9389,-3.9484,-3.9442,-3.9475,-3.9496,-3.95,-3.9506,-3.9468,-3.953,-3.9642,-3.9655,-3.9515,-3.9513,-3.9512,0,-3.8903,-3.8997,-3.907,-3.9096,-3.9161,-3.9196,-3.9225,-3.9273,-3.931,-3.9363,-3.9387,-3.9448,-3.948,-3.9528,-3.9554,-3.9528,-3.9647,-3.9616,-3.9662,-3.9661,-3.9685,-3.9683,-3.9803,-3.9709,-3.9709,-3.9708,-3.9708,0,-3.8994,-3.9056,-3.9095,-3.914,-3.9211,-3.9234,-3.9304,-3.9333,-3.9376,-3.9428,-3.9437,-3.9486,-3.9517,-3.9571,-3.9592,-3.9668,-3.9683,-3.9698,-3.9702,-3.9696,-3.9694,-3.9717,-3.9711,-3.9712,-3.9711,-3.971,-3.971,0,-3.9065,-3.9093,-3.9174,-3.9229,-3.9244,-3.9294,-3.9342,-3.9387,-3.9413,-3.9479,-3.9496,-3.9537,-3.9601,-3.9632,-3.9712,-3.9726,-3.9812,-3.9813,-3.9794,-3.9795,-3.9839,-3.9834,-3.9976,-3.9996,-3.989,-3.9891,-3.9892,0,-3.912,-3.9168,-3.9229,-3.9263,-3.9293,-3.9349,-3.9387,-3.9412,-3.9451,-3.9514,-3.9552,-3.9616,-3.9669,-3.9772,-3.981,-3.9872,-3.9875,-3.992,-3.9884,-3.9876,-3.9874,-3.987,-3.9876,-3.9926,-3.9927,-3.9928,-3.9929,0,-3.9216,-3.9228,-3.928,-3.9339,-3.9383,-3.9431,-3.9478,-3.9507,-3.954,-3.9584,-3.9649,-3.969,-3.9772,-3.9836,-3.9901,-3.9933,-3.9937,-3.994,-3.9954,-3.9947,-3.9934,-3.9941,-3.981,-3.9936,-3.9936,-3.9935,-3.9935,-3.9934,-3.928,-3.9323,-3.9372,-3.9432,-3.947,-3.9514,-3.9558,-3.959,-3.9645,-3.9712,-3.9725,-3.9795,-3.9847,-3.9934,-3.9969,-4.0025,-4.0014,-4.0034,-4.0039,-4.0043,-4.0045,-3.9926,-4.0037,-4.0037,-4.0037,-4.0037,-4.0036,0,-3.9375,-3.9407,-3.9462,-3.9526,-3.9574,-3.9573,-3.9625,-3.9665,-3.9726,-3.9773,-3.9825,-3.9901,-3.9965,-4.0008,-4.0073,-4.011,-4.0113,-4.0126,-4.0123,-4.013,-4.0051,-4.0032,-4.0122,-4.0122,-4.0122,-4.0122,-4.0122,-4.0122,-3.943,-3.9503,-3.9521,-3.9614,-3.9647,-3.9713,-3.9744,-3.9785,-3.9823,-3.9907,-3.9959,-3.9987,-4.0034,-4.0102,-4.0161,-4.0173,-4.0196,-4.0208,-4.0219,-4.0145,-4.0135,-4.0127,-4.0109,-4.0213,-4.0214,-4.0294,-4.0294,-4.0295]},{"header":{"parameterUnit":"m.s-1","parameterCategory":1,"la1":30.2991,"la2":30.254,"lo1":-89.0895,"lo2":-89.0444,"dy":0.0017,"dx":0.0017,"nx":28,"ny":28,"refTime":"2026-03-03T09:00:00:Z","depth":0,"parameterNumber":3,"parameterNumberName":"V-component_of_WINDS"},"data":[0,0,0,0,0,0,0,0,0,0,0,0,0,0,0,0,0,0,0,0,0,0,0,0,0,0,0,0,0,0,0,0,0,0,0,0,0,0,0,0,0,0,0,0,0,0,0,0,0,0,0,0,0,0,0,0,0,0,2.3317,2.3317,0,2.3367,2.3368,2.3368,2.3367,2.3366,2.3366,2.3365,2.3415,2.3417,2.3419,0,0,0,0,0,0,0,0,0,0,0,0,0,2.3219,2.322,2.3317,2.3317,2.3318,2.3367,2.3368,2.3369,2.3367,2.3366,2.3365,2.3365,2.3414,2.3417,2.3419,0,0,0,0,0,0,0,0,0,0,0,0,0,2.3264,2.3221,2.3316,2.3323,2.3324,2.3367,2.3368,2.3369,2.3367,2.3366,2.3365,2.3364,2.3414,2.3417,2.3419,2.3458,0,0,2.3428,2.343,0,0,0,0,0,0,0,0,2.3262,2.3268,2.3321,2.3323,2.3324,2.336,2.3352,2.3399,2.3368,2.3351,2.3365,2.3364,2.3397,2.3402,2.3413,2.3461,2.3463,2.3429,2.3431,2.3432,2.3433,0,0,0,0,0,0,0,2.3259,2.3266,2.3337,2.3322,2.3324,2.3324,2.3329,2.3361,2.3379,2.3352,2.3352,2.3358,2.3398,2.341,2.3414,2.3464,2.3429,2.3431,2.3433,2.3434,2.3549,2.355,0,0,0,0,0,0,2.3254,2.3263,2.3335,2.3338,2.329,2.3326,2.3332,2.3349,2.3379,2.3382,2.3359,2.3358,2.3406,2.3411,2.3416,2.3466,2.3432,2.3435,2.3436,2.3548,2.3549,2.3551,0,0,0,0,0,0,2.3252,2.3261,2.3333,2.3301,2.331,2.3329,2.3348,2.3351,2.3363,2.3384,2.3387,2.3369,2.3405,2.3412,2.3449,2.3468,2.3436,2.3439,2.3546,2.3548,2.355,2.3564,0,0,0,0,0,0,2.3249,2.326,2.3275,2.3301,2.3312,2.3364,2.3349,2.3353,2.3369,2.3368,2.3394,2.3397,2.3405,2.3444,2.3452,2.3471,2.3441,2.3545,2.3547,2.3549,2.3562,2.3566,2.357,0,0,0,0,0,2.3246,2.3275,2.3275,2.3284,2.3331,2.3365,2.3372,2.338,2.337,2.3386,2.34,2.3396,2.3464,2.3448,2.3456,2.3477,2.3543,2.3546,2.3549,2.356,2.3566,2.357,0,0,0,0,0,0,2.3249,2.3279,2.3279,2.3318,2.334,2.3365,2.3384,2.3385,2.3409,2.3407,2.3417,2.3423,2.346,2.3472,2.3453,2.3518,2.3503,2.3507,2.3508,2.3514,2.3517,2.3514,2.3443,0,0,0,0,0,2.3255,2.3281,2.3305,2.3338,2.3349,2.3365,2.338,2.3386,2.3408,2.3417,2.3433,2.3454,2.3481,2.3498,2.3523,2.3564,2.3571,2.3583,2.3586,2.359,2.3594,2.3619,2.3625,2.356,2.356,2.356,0,0,2.3266,2.3285,2.3301,2.3339,2.3356,2.3384,2.3372,2.3401,2.3422,2.3421,2.3457,2.347,2.3495,2.3535,2.3553,2.3546,2.3613,2.3593,2.3596,2.3598,2.3622,2.3628,2.3634,2.3562,2.3562,2.3561,0,0,2.3301,2.3317,2.3348,2.3366,2.3392,2.3404,2.3411,2.3437,2.3446,2.3483,2.3484,2.3509,2.3553,2.3572,2.3587,2.3632,2.3631,2.364,2.3661,2.3685,2.369,2.3695,2.3713,2.3719,2.3644,2.3644,2.3644,0,2.3311,2.3352,2.3363,2.3393,2.341,2.3412,2.3443,2.346,2.3493,2.3506,2.3497,2.3556,2.3572,2.3618,2.3629,2.3641,2.365,2.3637,2.3689,2.3694,2.3698,2.3715,2.3722,2.3645,2.3645,2.3645,2.3645,0,2.3365,2.3394,2.3415,2.3449,2.3469,2.3499,2.3514,2.3533,2.3538,2.355,2.3589,2.3609,2.364,2.3651,2.3654,2.3698,2.3693,2.3687,2.3672,2.3705,2.3721,2.3728,2.3647,2.3646,2.3646,2.3646,0,0,2.3401,2.3443,2.3451,2.3467,2.3498,2.3521,2.3552,2.3584,2.36,2.3624,2.3651,2.3691,2.3686,2.3703,2.3709,2.3731,2.3768,2.3722,2.3723,2.3731,2.3819,2.3824,2.3832,2.3768,2.3769,2.377,2.3818,0,2.3441,2.3497,2.3508,2.3557,2.3585,2.3589,2.3616,2.3639,2.3652,2.3677,2.3691,2.372,2.3711,2.3722,2.3743,2.3759,2.3786,2.3755,2.3794,2.3795,2.3788,2.384,2.3845,2.3889,2.3824,2.3825,2.3826,0,2.3493,2.352,2.3572,2.3602,2.3614,2.3639,2.367,2.3694,2.3721,2.3729,2.375,2.3754,2.3788,2.3772,2.3819,2.3798,2.3815,2.3825,2.3827,2.3831,2.3813,2.3847,2.3903,2.391,2.3835,2.3835,2.3834,0,2.3517,2.3566,2.3604,2.3618,2.3653,2.3671,2.3687,2.3712,2.3731,2.3758,2.3771,2.3801,2.3818,2.3841,2.3855,2.3841,2.3902,2.3886,2.391,2.391,2.3922,2.3922,2.3983,2.3932,2.3932,2.3931,2.3931,0,2.356,2.3592,2.3616,2.3639,2.3676,2.3689,2.3725,2.374,2.3763,2.3791,2.3795,2.3821,2.3836,2.3864,2.3874,2.3913,2.392,2.3928,2.3931,2.3928,2.3927,2.3939,2.3937,2.3933,2.3933,2.3933,2.3932,0,2.3592,2.3609,2.3651,2.3683,2.3691,2.3717,2.3744,2.3767,2.3781,2.3816,2.3825,2.3847,2.388,2.3896,2.3936,2.3943,2.3988,2.3988,2.3979,2.398,2.4004,2.4002,2.4076,2.4088,2.4028,2.4028,2.4029,0,2.3618,2.3644,2.3678,2.3698,2.3714,2.3744,2.3765,2.3779,2.38,2.3834,2.3854,2.3887,2.3915,2.3969,2.3988,2.402,2.4021,2.4045,2.4026,2.4024,2.4024,2.4022,2.4026,2.4049,2.4049,2.405,2.405,0,2.3664,2.3673,2.3702,2.3735,2.3759,2.3786,2.3811,2.3827,2.3846,2.3869,2.3904,2.3926,2.3969,2.4003,2.4037,2.4053,2.4056,2.4056,2.4064,2.4062,2.4057,2.4061,2.399,2.4054,2.4054,2.4054,2.4053,2.4053,2.3696,2.3719,2.3748,2.3781,2.3803,2.3828,2.3852,2.3871,2.39,2.3937,2.3944,2.3982,2.401,2.4055,2.4073,2.4103,2.4098,2.4108,2.4111,2.4114,2.4116,2.4052,2.4109,2.4109,2.4109,2.4109,2.4109,0,2.3743,2.3763,2.3793,2.3831,2.3857,2.3858,2.3888,2.391,2.3943,2.3969,2.3998,2.4039,2.4073,2.4096,2.4131,2.415,2.4152,2.4159,2.4158,2.4162,2.4118,2.4109,2.4157,2.4157,2.4157,2.4157,2.4157,2.4157,2.3771,2.3812,2.3824,2.3876,2.3895,2.3933,2.395,2.3974,2.3995,2.4042,2.407,2.4086,2.4111,2.4148,2.418,2.4186,2.4199,2.4206,2.4212,2.417,2.4165,2.416,2.4152,2.4208,2.4208,2.4254,2.4254,2.4255]}]]